Location: Unspecified
(0.0000°N, 0.0000°E)
Time: 18:30:32
(UTC+00:00)

Interbol-2 - Pass Details

Date: 13 June 2023
Orbit: 911 x 19062 km, 62.8° (Epoch: 28 September)

Event Time Altitude Azimuth Distance (km) Brightness Sun altitude
Rises 22:23:25 0° 241° (WSW) 8,631 11.0 -57.0°
Reaches altitude 10° 22:28:49 10° 250° (WSW) 8,872 11.0 -57.9°
Maximum altitude 23:04:19 31° 300° (WNW) 13,839 11.8 -63.1°
Drops below altitude 10° 02:17:36 10° 14° (NNE) 18,589 12.8 -49.3°
Sets 03:08:48 0° 57° (ENE) 11,044 12.3 -38.7°
